Regional Weather Roundup
Issued by NWS Sioux Falls, SD

Home | Current Version | Previous Version | Text Only | Print | Product List | Glossary Off
Versions: 1 2 3 4 5 6 7 8 9 10 11 12 13 14 15 16 17 18 19 20 21 22 23 24 25 26 27 28 29 30 31 32 33 34 35 36 37 38 39 40 41 42 43 44 45 46 47 48 49 50

000
ASUS43 KFSD 240010
RWRFSD

WEATHER ROUNDUP FOR SE SOUTH DAKOTA/SW MINNESOTA/NW IOWA
NATIONAL WEATHER SERVICE SIOUX FALLS SD
600 PM CST TUE JAN 23 2018

NOTE: "FAIR" INDICATES FEW OR NO CLOUDS BELOW 12,000 FEET WITH NO
SIGNIFICANT WEATHER AND OR OBSTRUCTIONS TO VISIBILITY.


SDZ038>040-050-052>070-240100-
SOUTHEAST SOUTH DAKOTA

CITY           SKY/WX    TMP DP  RH WIND       PRES   REMARKS
BROOKINGS      CLOUDY    23  21  93 W10       30.13R WCI  12
CHAMBERLAIN    PTCLDY    32  28  85 W7        30.14S WCI  26
6HR MIN TEMP:  27; 6HR MAX TEMP:  37;

HURON          MOCLDY    25  23  92 S3        30.14R
6HR MIN TEMP:  22; 6HR MAX TEMP:  27;

MADISON        CLOUDY    23  23 100 NW7       30.13R WCI  15
MITCHELL       MOCLDY    30  25  81 CALM      30.15S
6HR MIN TEMP:  23; 6HR MAX TEMP:  31;

SIOUX FALLS    CLOUDY    25  23  92 W6        30.15R WCI  18
6HR MIN TEMP:  22; 6HR MAX TEMP:  25;

WINNER         FAIR      35  26  69 W14       30.15R WCI  26
YANKTON        PTCLDY    24  20  84 CALM      30.17R
$$

MNZ071-072-080-081-089-090-097-098-240100-
SOUTHWEST MINNESOTA

CITY           SKY/WX    TMP DP  RH WIND       PRES   REMARKS
FAIRMONT       CLOUDY    19  16  88 W7        30.16R WCI  10
JACKSON        CLOUDY    23  19  86 W5        30.13F WCI  17
LUVERNE        CLOUDY    23  21  93 W7        30.15R WCI  15
MARSHALL       CLOUDY    25  21  85 W9        30.15R WCI  15
6HR MIN TEMP:  23; 6HR MAX TEMP:  26;

MONTEVIDEO     CLOUDY    25  19  80 CALM      30.15S
PIPESTONE      CLOUDY    21  21 100 W9        30.12R WCI  11
REDWOOD FALLS  PTCLDY    24  18  77 W8        30.14R WCI  15
TRACY          CLOUDY    26  22  86 W5        30.13R WCI  20
WINDOM         CLOUDY    21   9  58 W7        30.14R WCI  13
WORTHINGTON    CLOUDY    22  20  92 W8        30.14R WCI  12
$$

IAZ001>003-012>014-020>022-031-032-NEZ013-014-SDZ071-240100-
NORTHWEST IOWA

CITY           SKY/WX    TMP DP  RH WIND       PRES   REMARKS
CHEROKEE       CLOUDY    22  21  98 W5        30.18S WCI  15
DENISON        CLOUDY    23  21  93 W9        30.21R WCI  13
ESTHERVILLE    CLOUDY    20  18  92 W8        30.15R WCI  10
LE MARS        CLOUDY    23  21  93 CALM      30.18S
ORANGE CITY    CLOUDY    21  21 100 W8        30.16S WCI  12
SHELDON        CLOUDY    21  21 100 W6        30.14S FOG     WCI  14
SIOUX CITY     CLOUDY    25  22  88 CALM      30.19S
6HR MIN TEMP:  22; 6HR MAX TEMP:  25;

SPENCER        MIX PCPN  23  19  85 W7        30.16S WCI  15
6HR MIN TEMP:  23; 6HR MAX TEMP:  24; 6HR PCP: TRACE;

STORM LAKE     CLOUDY    21  21 100 W10       30.16S WCI  10
$$

ABBREVIATIONS USED IN REMARKS
   TC - TEMPERATURE IN CELSIUS
  WCI - WIND CHILL INDEX
   HX - HEAT INDEX
  VSB - VISIBILITY





USA.gov is the U.S. government's official web portal to all federal, state and local government web resources and services.